| time (UTC) | temp F | wind direction | speed MPH | gust MPH | rain 1hr in | rain 24hr in | rain mn in | humidity % | barometer mb |
| 20260507174057 | 63 | 270 | 4.0 | 12.0 | 0.00 | 0.14 | 0.01 | 32 | 1006.0 |
| 20260507173017 | 63 | 248 | 4.0 | 9.0 | 0.00 | 0.14 | 0.01 | 35 | 1005.9 |
| 20260507172017 | 62 | 315 | 5.0 | 14.0 | 0.00 | 0.14 | 0.01 | 35 | 1005.9 |
| 20260507171017 | 63 | 315 | 4.0 | 11.0 | 0.00 | 0.14 | 0.01 | 34 | 1006.1 |
| 20260507170017 | 62 | 315 | 4.0 | 9.0 | 0.00 | 0.14 | 0.01 | 40 | 1006.2 |
| 20260507165017 | 62 | 203 | 4.0 | 11.0 | 0.00 | 0.14 | 0.01 | 41 | 1006.5 |
| 20260507164017 | 60 | 315 | 7.0 | 15.0 | 0.00 | 0.14 | 0.01 | 42 | 1006.6 |
| 20260507163017 | 60 | 315 | 6.0 | 13.0 | 0.00 | 0.14 | 0.01 | 43 | 1006.7 |
| 20260507162037 | 60 | 315 | 6.0 | 12.0 | 0.00 | 0.14 | 0.01 | 45 | 1006.8 |
| 20260507161017 | 60 | 315 | 5.0 | 11.0 | 0.00 | 0.14 | 0.01 | 47 | 1006.9 |
| 20260507160017 | 59 | 293 | 5.0 | 9.0 | 0.00 | 0.14 | 0.01 | 53 | 1006.9 |
| 20260507155016 | 60 | 315 | 4.0 | 12.0 | 0.00 | 0.14 | 0.01 | 52 | 1006.9 |
| 20260507154057 | 59 | 248 | 4.0 | 10.0 | 0.00 | 0.14 | 0.01 | 56 | 1006.9 |
| 20260507153058 | 59 | 315 | 4.0 | 16.0 | 0.00 | 0.14 | 0.01 | 54 | 1006.9 |
| 20260507152017 | 59 | 338 | 4.0 | 9.0 | 0.00 | 0.14 | 0.01 | 58 | 1007.1 |
| 20260507151057 | 58 | 338 | 3.0 | 8.0 | 0.00 | 0.14 | 0.01 | 58 | 1007.1 |
| 20260507150017 | 58 | 315 | 3.0 | 8.0 | 0.00 | 0.14 | 0.01 | 59 | 1007.4 |
| 20260507145017 | 58 | 315 | 2.0 | 6.0 | 0.00 | 0.14 | 0.01 | 61 | 1007.4 |
| 20260507144037 | 58 | 338 | 3.0 | 7.0 | 0.00 | 0.14 | 0.01 | 59 | 1007.5 |
| 20260507143017 | 58 | 338 | 3.0 | 6.0 | 0.00 | 0.14 | 0.01 | 58 | 1007.4 |
| 20260507142017 | 58 | 315 | 2.0 | 6.0 | 0.00 | 0.14 | 0.01 | 60 | 1007.4 |
| 20260507141016 | 58 | 338 | 3.0 | 9.0 | 0.00 | 0.14 | 0.01 | 59 | 1007.5 |
| 20260507140037 | 58 | 315 | 3.0 | 9.0 | 0.00 | 0.14 | 0.01 | 61 | 1007.5 |
| 20260507135017 | 57 | 338 | 3.0 | 7.0 | 0.00 | 0.14 | 0.01 | 63 | 1007.4 |
| 20260507134018 | 58 | 23 | 2.0 | 4.0 | 0.00 | 0.14 | 0.01 | 64 | 1007.3 |
| 20260507133016 | 56 | 248 | 2.0 | 7.0 | 0.00 | 0.14 | 0.01 | 66 | 1007.5 |
| 20260507132017 | 56 | 315 | 2.0 | 5.0 | 0.00 | 0.14 | 0.01 | 69 | 1007.7 |
| 20260507131016 | 55 | 338 | 2.0 | 7.0 | 0.00 | 0.14 | 0.01 | 69 | 1007.7 |
| 20260507130017 | 54 | 225 | 3.0 | 7.0 | 0.00 | 0.14 | 0.01 | 71 | 1007.8 |
| 20260507125017 | 54 | 293 | 2.0 | 7.0 | 0.00 | 0.14 | 0.01 | 74 | 1007.9 |
| 20260507124016 | 53 | 315 | 3.0 | 8.0 | 0.00 | 0.14 | 0.01 | 75 | 1007.8 |
| 20260507123016 | 52 | 315 | 3.0 | 8.0 | 0.00 | 0.14 | 0.01 | 78 | 1007.9 |
| 20260507122016 | 51 | 315 | 2.0 | 8.0 | 0.00 | 0.14 | 0.01 | 80 | 1008.0 |
| 20260507121016 | 50 | 315 | 2.0 | 7.0 | 0.00 | 0.14 | 0.01 | 81 | 1007.9 |
| 20260507120017 | 51 | 315 | 2.0 | 5.0 | 0.00 | 0.14 | 0.01 | 81 | 1008.0 |
| 20260507115016 | 50 | 315 | 2.0 | 5.0 | 0.00 | 0.14 | 0.01 | 83 | 1007.9 |
| 20260507114016 | 50 | 315 | 2.0 | 5.0 | 0.00 | 0.14 | 0.01 | 84 | 1007.8 |
| 20260507113016 | 49 | 293 | 1.0 | 6.0 | 0.00 | 0.14 | 0.01 | 85 | 1007.9 |
| 20260507112016 | 49 | 338 | 1.0 | 4.0 | 0.00 | 0.14 | 0.01 | 85 | 1007.8 |
| 20260507111016 | 49 | 23 | 1.0 | 4.0 | 0.00 | 0.14 | 0.01 | 85 | 1007.6 |
| 20260507110153 | 49 | 315 | 1.0 | 4.0 | 0.00 | 0.14 | 0.03 | 85 | 1007.7 |
| 20260507105036 | 48 | 338 | 1.0 | 3.0 | 0.00 | 0.14 | 0.01 | 85 | 1007.8 |
| 20260507104036 | 48 | 315 | 2.0 | 7.0 | 0.00 | 0.14 | 0.01 | 85 | 1007.4 |
| 20260507103036 | 48 | 338 | 2.0 | 6.0 | 0.00 | 0.14 | 0.01 | 86 | 1007.1 |
| 20260507102017 | 48 | 338 | 2.0 | 4.0 | 0.00 | 0.14 | 0.01 | 87 | 1007.0 |
| 20260507101016 | 48 | 338 | 1.0 | 5.0 | 0.00 | 0.14 | 0.01 | 88 | 1006.8 |
| 20260507100016 | 48 | 315 | 2.0 | 6.0 | 0.00 | 0.14 | 0.01 | 88 | 1007.0 |
| 20260507095016 | 49 | 315 | 2.0 | 5.0 | 0.00 | 0.14 | 0.01 | 87 | 1006.8 |
| 20260507094016 | 49 | 0.0 | 5.0 | 0.00 | 0.14 | 0.01 | 87 | 1007.4 | |
| 20260507093016 | 49 | 315 | 1.0 | 4.0 | 0.00 | 0.14 | 0.01 | 87 | 1006.9 |
| 20260507092017 | 49 | 315 | 1.0 | 2.0 | 0.00 | 0.14 | 0.01 | 86 | 1007.2 |
| 20260507091016 | 49 | 293 | 1.0 | 4.0 | 0.00 | 0.14 | 0.01 | 86 | 1007.1 |
| 20260507090016 | 49 | 315 | 1.0 | 3.0 | 0.00 | 0.14 | 0.01 | 86 | 1007.6 |
| 20260507085016 | 49 | 293 | 1.0 | 3.0 | 0.00 | 0.14 | 0.01 | 86 | 1007.2 |
| 20260507084016 | 50 | 315 | 2.0 | 6.0 | 0.00 | 0.14 | 0.01 | 87 | 1007.0 |
| 20260507083016 | 50 | 315 | 1.0 | 5.0 | 0.00 | 0.14 | 0.01 | 88 | 1007.0 |
| 20260507082016 | 50 | 315 | 1.0 | 4.0 | 0.00 | 0.14 | 0.01 | 88 | 1006.8 |
| 20260507081016 | 50 | 315 | 1.0 | 3.0 | 0.00 | 0.14 | 0.01 | 88 | 1006.8 |
| 20260507080016 | 51 | 315 | 1.0 | 7.0 | 0.00 | 0.14 | 0.01 | 88 | 1006.7 |
| 20260507075016 | 51 | 315 | 2.0 | 6.0 | 0.00 | 0.14 | 0.01 | 88 | 1007.1 |
| 20260507074016 | 52 | 315 | 1.0 | 5.0 | 0.00 | 0.14 | 0.01 | 89 | 1006.8 |
| 20260507073036 | 52 | 338 | 1.0 | 3.0 | 0.00 | 0.14 | 0.01 | 89 | 1006.9 |
| 20260507072036 | 52 | 338 | 1.0 | 3.0 | 0.00 | 0.14 | 0.01 | 89 | 1006.5 |
| 20260507071016 | 52 | 315 | 1.0 | 4.0 | 0.00 | 0.14 | 0.01 | 89 | 1006.4 |
| 20260507070016 | 52 | 0.0 | 3.0 | 0.00 | 0.14 | 0.01 | 88 | 1006.3 | |
| 20260507065016 | 52 | 315 | 1.0 | 3.0 | 0.00 | 0.14 | 0.01 | 87 | 1005.9 |
| 20260507064016 | 52 | 0.0 | 2.0 | 0.00 | 0.14 | 0.01 | 87 | 1006.1 | |
| 20260507063016 | 52 | 338 | 1.0 | 4.0 | 0.00 | 0.14 | 0.01 | 87 | 1006.3 |
| 20260507062016 | 52 | 338 | 2.0 | 5.0 | 0.00 | 0.14 | 0.01 | 87 | 1006.3 |
| 20260507061016 | 52 | 338 | 2.0 | 4.0 | 0.00 | 0.14 | 0.01 | 86 | 1006.1 |
| 20260507060036 | 52 | 338 | 2.0 | 6.0 | 0.00 | 0.14 | 0.01 | 86 | 1006.1 |
| 20260507055016 | 52 | 315 | 3.0 | 7.0 | 0.00 | 0.14 | 0.01 | 86 | 1006.2 |
| 20260507054016 | 53 | 315 | 2.0 | 7.0 | 0.00 | 0.14 | 0.01 | 87 | 1006.7 |
| 20260507053016 | 53 | 315 | 2.0 | 9.0 | 0.00 | 0.14 | 0.01 | 89 | 1006.6 |
| 20260507052016 | 54 | 315 | 3.0 | 7.0 | 0.00 | 0.14 | 0.01 | 91 | 1006.5 |
| 20260507051016 | 54 | 315 | 2.0 | 4.0 | 0.01 | 0.14 | 0.01 | 91 | 1006.7 |
| 20260507050016 | 54 | 315 | 1.0 | 4.0 | 0.01 | 0.14 | 0.01 | 91 | 1006.6 |
| 20260507045015 | 55 | 315 | 1.0 | 5.0 | 0.03 | 0.14 | 0.01 | 91 | 1006.5 |
| 20260507044016 | 55 | 315 | 1.0 | 4.0 | 0.03 | 0.14 | 0.01 | 91 | 1006.6 |
| 20260507043016 | 55 | 315 | 1.0 | 7.0 | 0.03 | 0.14 | 0.01 | 90 | 1006.4 |
| 20260507042016 | 55 | 315 | 2.0 | 6.0 | 0.03 | 0.14 | 0.01 | 90 | 1006.3 |
| 20260507041016 | 56 | 315 | 4.0 | 11.0 | 0.02 | 0.13 | 0.00 | 89 | 1006.3 |
| 20260507040015 | 57 | 315 | 3.0 | 10.0 | 0.02 | 0.13 | 0.13 | 89 | 1006.5 |
| 20260507035016 | 58 | 293 | 3.0 | 8.0 | 0.00 | 0.11 | 0.11 | 91 | 1006.3 |
| 20260507034016 | 58 | 293 | 2.0 | 7.0 | 0.00 | 0.11 | 0.11 | 93 | 1005.9 |
| 20260507033016 | 59 | 248 | 2.0 | 6.0 | 0.00 | 0.11 | 0.11 | 93 | 1005.9 |
| 20260507032016 | 59 | 293 | 2.0 | 5.0 | 0.00 | 0.11 | 0.11 | 94 | 1005.7 |
| 20260507031036 | 59 | 225 | 2.0 | 7.0 | 0.00 | 0.11 | 0.11 | 95 | 1005.4 |
| 20260507030116 | 59 | 248 | 2.0 | 5.0 | 0.00 | 0.11 | 0.11 | 95 | 1005.2 |
| 20260507025036 | 59 | 225 | 1.0 | 6.0 | 0.00 | 0.11 | 0.11 | 94 | 1005.3 |
| 20260507024016 | 59 | 225 | 2.0 | 6.0 | 0.00 | 0.11 | 0.11 | 94 | 1005.4 |
| 20260507023016 | 59 | 225 | 2.0 | 6.0 | 0.00 | 0.11 | 0.11 | 94 | 1005.3 |
| 20260507022016 | 59 | 180 | 2.0 | 7.0 | 0.00 | 0.11 | 0.11 | 94 | 1005.3 |
| 20260507021036 | 59 | 180 | 2.0 | 8.0 | 0.00 | 0.11 | 0.11 | 94 | 1005.1 |
| 20260507020016 | 59 | 203 | 2.0 | 6.0 | 0.00 | 0.11 | 0.11 | 94 | 1005.2 |
| 20260507015016 | 59 | 180 | 2.0 | 8.0 | 0.00 | 0.11 | 0.11 | 94 | 1005.2 |
| 20260507014036 | 59 | 203 | 2.0 | 7.0 | 0.00 | 0.11 | 0.11 | 94 | 1005.3 |
| 20260507013016 | 59 | 203 | 2.0 | 11.0 | 0.00 | 0.11 | 0.11 | 94 | 1005.2 |
| 20260507012016 | 59 | 180 | 2.0 | 7.0 | 0.00 | 0.11 | 0.11 | 94 | 1005.2 |
| 20260507011016 | 59 | 180 | 2.0 | 8.0 | 0.00 | 0.11 | 0.11 | 94 | 1005.3 |
| 20260507010016 | 59 | 225 | 3.0 | 10.0 | 0.00 | 0.11 | 0.11 | 94 | 1005.4 |
| 20260507005036 | 59 | 203 | 3.0 | 10.0 | 0.00 | 0.11 | 0.11 | 94 | 1005.3 |
| 20260507004056 | 59 | 180 | 3.0 | 7.0 | 0.00 | 0.11 | 0.11 | 94 | 1005.2 |
| 20260507003056 | 59 | 203 | 2.0 | 6.0 | 0.00 | 0.11 | 0.11 | 94 | 1005.2 |
| 20260507002016 | 59 | 203 | 3.0 | 9.0 | 0.00 | 0.11 | 0.11 | 94 | 1005.2 |
| 20260507001016 | 59 | 180 | 4.0 | 12.0 | 0.01 | 0.11 | 0.11 | 94 | 1005.2 |
| 20260507000016 | 59 | 180 | 4.0 | 10.0 | 0.03 | 0.11 | 0.11 | 94 | 1005.1 |
| 20260506235016 | 59 | 180 | 3.0 | 8.0 | 0.03 | 0.11 | 0.11 | 94 | 1004.9 |
| 20260506234036 | 59 | 203 | 3.0 | 6.0 | 0.04 | 0.11 | 0.11 | 94 | 1005.0 |
| 20260506233016 | 59 | 180 | 4.0 | 9.0 | 0.04 | 0.11 | 0.11 | 94 | 1004.9 |
| 20260506232015 | 59 | 180 | 3.0 | 11.0 | 0.04 | 0.11 | 0.11 | 93 | 1004.9 |
| 20260506231017 | 59 | 158 | 4.0 | 9.0 | 0.04 | 0.10 | 0.10 | 93 | 1004.9 |
| 20260506230016 | 60 | 180 | 3.0 | 7.0 | 0.02 | 0.08 | 0.08 | 93 | 1005.0 |
| 20260506225016 | 60 | 180 | 3.0 | 8.0 | 0.02 | 0.08 | 0.08 | 93 | 1005.1 |
| 20260506224015 | 60 | 180 | 3.0 | 6.0 | 0.01 | 0.07 | 0.07 | 93 | 1005.1 |
| 20260506223035 | 60 | 203 | 3.0 | 10.0 | 0.01 | 0.07 | 0.07 | 93 | 1005.1 |
| 20260506222015 | 60 | 180 | 5.0 | 11.0 | 0.01 | 0.07 | 0.07 | 92 | 1005.1 |
| 20260506221016 | 60 | 203 | 4.0 | 11.0 | 0.00 | 0.06 | 0.06 | 92 | 1005.3 |
| 20260506220017 | 60 | 180 | 4.0 | 12.0 | 0.00 | 0.06 | 0.06 | 92 | 1005.4 |
| 20260506215015 | 60 | 225 | 4.0 | 14.0 | 0.01 | 0.06 | 0.06 | 92 | 1005.4 |
| 20260506214015 | 60 | 203 | 4.0 | 10.0 | 0.01 | 0.06 | 0.06 | 92 | 1005.4 |
| 20260506213036 | 60 | 203 | 5.0 | 16.0 | 0.02 | 0.06 | 0.06 | 91 | 1005.5 |
| 20260506212015 | 60 | 180 | 4.0 | 13.0 | 0.02 | 0.06 | 0.06 | 91 | 1005.8 |
| 20260506211015 | 60 | 180 | 3.0 | 9.0 | 0.02 | 0.06 | 0.06 | 91 | 1005.9 |
| 20260506210015 | 60 | 248 | 3.0 | 10.0 | 0.03 | 0.06 | 0.06 | 91 | 1005.9 |
| 20260506205015 | 60 | 203 | 5.0 | 16.0 | 0.02 | 0.05 | 0.05 | 90 | 1006.0 |
| 20260506204015 | 60 | 225 | 5.0 | 15.0 | 0.02 | 0.05 | 0.05 | 90 | 1006.1 |
| 20260506203016 | 61 | 203 | 4.0 | 14.0 | 0.02 | 0.04 | 0.04 | 89 | 1006.1 |
| 20260506202015 | 61 | 225 | 5.0 | 14.0 | 0.02 | 0.04 | 0.04 | 89 | 1006.1 |
| 20260506201015 | 62 | 180 | 5.0 | 13.0 | 0.03 | 0.04 | 0.04 | 88 | 1005.9 |
| 20260506200015 | 62 | 180 | 4.0 | 12.0 | 0.02 | 0.03 | 0.03 | 88 | 1006.1 |
| 20260506195015 | 63 | 203 | 3.0 | 11.0 | 0.03 | 0.03 | 0.03 | 87 | 1006.2 |
| 20260506194017 | 63 | 180 | 4.0 | 9.0 | 0.03 | 0.03 | 0.03 | 86 | 1006.1 |
| 20260506193018 | 64 | 180 | 2.0 | 6.0 | 0.02 | 0.02 | 0.02 | 85 | 1006.2 |
| 20260506192037 | 64 | 203 | 3.0 | 12.0 | 0.02 | 0.02 | 0.02 | 83 | 1006.1 |
| 20260506191017 | 65 | 248 | 4.0 | 10.0 | 0.01 | 0.01 | 0.01 | 81 | 1006.1 |
| 20260506190018 | 66 | 180 | 4.0 | 15.0 | 0.01 | 0.01 | 0.01 | 77 | 1006.2 |
| 20260506185018 | 67 | 248 | 5.0 | 14.0 | 0.00 | 0.00 | 0.00 | 72 | 1006.3 |
| 20260506184017 | 68 | 225 | 6.0 | 18.0 | 0.00 | 0.00 | 0.00 | 69 | 1006.4 |
| 20260506183017 | 69 | 225 | 6.0 | 13.0 | 0.00 | 0.00 | 0.00 | 67 | 1006.4 |
| 20260506182758 | 70 | 225 | 5.0 | 20.0 | 0.00 | 0.00 | 0.00 | 63 | 1006.3 |